Location: Cactus School
(34.5700°N, 118.0931°W)
Time: 23:53:36
(UTC-07:00)

Vanguard 2 - Pass Details

Date: 23 April 2024
Orbit: 553 x 2914 km, 32.9° (Epoch: 18 May)

Event Time Altitude Azimuth Distance (km) Brightness Sun altitude
Exits shadow 00:55:48 44° 107° (ESE) 3,322 10.4 -42.7°
Drops below altitude 10° 01:07:42 10° 79° (E) 5,725 12.1 -42.5°
Sets 01:12:24 0° 76° (ENE) 6,762 12.6 -42.4°
